[[{"header":{"parameterUnit":"m.s-1","parameterCategory":1,"la1":30.2991,"la2":30.254,"lo1":-89.0895,"lo2":-89.0444,"dy":0.0017,"dx":0.0017,"nx":28,"ny":28,"refTime":"2023-10-19T03:00:00:Z","depth":0,"parameterNumber":2,"parameterNumberName":"U-component_of_WINDS"},"data":[0,0,0,0,0,0,0,0,0,0,0,0,0,0,0,0,0,0,0,0,0,0,0,0,0,0,0,0,0,0,0,0,0,0,0,0,0,0,0,0,0,0,0,0,0,0,0,0,0,0,0,0,0,0,0,0,0,0,-1.0738,-1.0739,0,-1.0744,-1.0744,-1.0744,-1.0711,-1.071,-1.0709,-1.0708,-1.0714,-1.0715,-1.0716,0,0,0,0,0,0,0,0,0,0,0,0,0,-1.0701,-1.0702,-1.0738,-1.0739,-1.0739,-1.0744,-1.0744,-1.0744,-1.0711,-1.071,-1.0708,-1.0707,-1.0714,-1.0715,-1.0716,0,0,0,0,0,0,0,0,0,0,0,0,0,-1.0713,-1.0703,-1.0738,-1.0723,-1.0721,-1.0744,-1.0744,-1.0744,-1.0711,-1.071,-1.0708,-1.0707,-1.0713,-1.0715,-1.0716,-1.0754,0,0,-1.0721,-1.0722,0,0,0,0,0,0,0,0,-1.0713,-1.0715,-1.0725,-1.0724,-1.0722,-1.0725,-1.0733,-1.0748,-1.0711,-1.0715,-1.0708,-1.0706,-1.0719,-1.072,-1.0724,-1.0755,-1.0755,-1.0721,-1.0722,-1.0723,-1.0723,0,0,0,0,0,0,0,-1.0712,-1.0714,-1.0741,-1.0725,-1.0723,-1.0716,-1.0716,-1.0736,-1.0725,-1.0715,-1.0712,-1.0713,-1.0718,-1.0723,-1.0724,-1.0755,-1.0721,-1.0722,-1.0723,-1.0724,-1.082,-1.0821,0,0,0,0,0,0,-1.0713,-1.0714,-1.074,-1.0741,-1.0714,-1.0718,-1.0718,-1.0726,-1.0724,-1.0723,-1.0714,-1.0712,-1.0721,-1.0722,-1.0724,-1.077,-1.0723,-1.0724,-1.0725,-1.0818,-1.082,-1.0822,0,0,0,0,0,0,-1.0712,-1.0716,-1.074,-1.0727,-1.0729,-1.072,-1.0729,-1.0727,-1.0731,-1.0724,-1.0722,-1.0721,-1.0719,-1.0722,-1.0748,-1.0769,-1.0725,-1.0726,-1.0816,-1.0819,-1.0821,-1.0861,0,0,0,0,0,0,-1.0711,-1.0716,-1.0729,-1.0727,-1.073,-1.0763,-1.073,-1.0728,-1.0734,-1.073,-1.073,-1.0729,-1.0719,-1.0745,-1.0749,-1.0771,-1.0728,-1.0814,-1.0817,-1.082,-1.0857,-1.0864,-1.087,0,0,0,0,0,-1.071,-1.074,-1.073,-1.0733,-1.0747,-1.0764,-1.0766,-1.0753,-1.0736,-1.075,-1.0746,-1.0729,-1.0767,-1.0748,-1.0752,-1.0775,-1.0813,-1.0817,-1.082,-1.0855,-1.0863,-1.087,0,0,0,0,0,0,-1.0744,-1.0739,-1.0728,-1.0758,-1.0762,-1.0759,-1.0776,-1.0762,-1.0771,-1.0768,-1.0752,-1.0752,-1.0781,-1.0781,-1.076,-1.0813,-1.0787,-1.0791,-1.0812,-1.082,-1.0826,-1.0825,-1.0729,0,0,0,0,0,-1.0755,-1.0769,-1.0764,-1.0791,-1.0794,-1.0785,-1.0792,-1.0782,-1.0786,-1.0787,-1.0785,-1.0789,-1.0802,-1.0811,-1.0822,-1.0858,-1.0858,-1.0875,-1.0882,-1.0887,-1.0891,-1.0911,-1.0919,-1.0834,-1.0834,-1.0834,0,0,-1.0778,-1.0777,-1.0787,-1.0798,-1.08,-1.0816,-1.0786,-1.0804,-1.0816,-1.079,-1.0814,-1.0813,-1.0817,-1.0848,-1.0862,-1.0849,-1.0915,-1.0892,-1.0896,-1.0897,-1.0916,-1.0924,-1.0931,-1.0836,-1.0836,-1.0835,0,0,-1.0827,-1.0828,-1.0851,-1.0854,-1.0857,-1.0851,-1.0857,-1.0857,-1.0855,-1.088,-1.0861,-1.0876,-1.0898,-1.0902,-1.0907,-1.0962,-1.0946,-1.0966,-1.0998,-1.1018,-1.1025,-1.1031,-1.1051,-1.1058,-1.097,-1.097,-1.097,0,-1.0855,-1.0877,-1.0864,-1.0884,-1.089,-1.0868,-1.0892,-1.0896,-1.0903,-1.0908,-1.0894,-1.0923,-1.0924,-1.0957,-1.097,-1.0975,-1.0982,-1.0965,-1.1025,-1.1031,-1.1036,-1.1055,-1.1063,-1.0972,-1.0972,-1.0972,-1.0972,0,-1.0911,-1.0928,-1.0946,-1.0954,-1.0963,-1.0984,-1.0976,-1.0986,-1.0977,-1.0973,-1.1,-1.1001,-1.1013,-1.102,-1.1011,-1.1052,-1.1044,-1.1028,-1.1001,-1.1047,-1.1065,-1.1072,-1.0976,-1.0975,-1.0974,-1.0974,0,0,-1.098,-1.0983,-1.0989,-1.0994,-1.0998,-1.101,-1.1032,-1.1044,-1.1054,-1.1061,-1.1079,-1.11,-1.1086,-1.1092,-1.1083,-1.1101,-1.1145,-1.1082,-1.1082,-1.1094,-1.1192,-1.1204,-1.1213,-1.1136,-1.1137,-1.1138,-1.1192,0,-1.1028,-1.1064,-1.1055,-1.1091,-1.1107,-1.1089,-1.1108,-1.1113,-1.1111,-1.1125,-1.1123,-1.1138,-1.1117,-1.1121,-1.1138,-1.1136,-1.1164,-1.1132,-1.1153,-1.1154,-1.1152,-1.1222,-1.1234,-1.1285,-1.1199,-1.12,-1.1201,0,-1.1089,-1.1099,-1.1137,-1.114,-1.1146,-1.1164,-1.1175,-1.1189,-1.1195,-1.1192,-1.1201,-1.1189,-1.1212,-1.1186,-1.1218,-1.1197,-1.1205,-1.1206,-1.1208,-1.1208,-1.1179,-1.1224,-1.13,-1.1308,-1.1211,-1.121,-1.121,0,-1.1135,-1.1158,-1.1184,-1.1189,-1.1193,-1.1206,-1.1208,-1.1213,-1.1222,-1.1233,-1.1239,-1.1252,-1.1259,-1.1271,-1.1264,-1.1246,-1.1297,-1.1271,-1.1296,-1.1297,-1.1307,-1.1306,-1.1385,-1.1313,-1.1313,-1.1313,-1.1313,0,-1.119,-1.1214,-1.1206,-1.1222,-1.1249,-1.1239,-1.1267,-1.1267,-1.1272,-1.1289,-1.1274,-1.1291,-1.1281,-1.1297,-1.1292,-1.132,-1.1323,-1.1322,-1.132,-1.1323,-1.1323,-1.1328,-1.1324,-1.1315,-1.1315,-1.1314,-1.1314,0,-1.1245,-1.1241,-1.1268,-1.1271,-1.1272,-1.1293,-1.1295,-1.1311,-1.1309,-1.1331,-1.1335,-1.1332,-1.135,-1.1345,-1.1365,-1.1361,-1.1397,-1.1391,-1.1395,-1.1393,-1.1419,-1.1417,-1.1503,-1.1514,-1.1436,-1.1436,-1.1437,0,-1.128,-1.1299,-1.1304,-1.1314,-1.1318,-1.1335,-1.1344,-1.1336,-1.1346,-1.1357,-1.1372,-1.1389,-1.1402,-1.1432,-1.1432,-1.1448,-1.1442,-1.1471,-1.1444,-1.1447,-1.1442,-1.1441,-1.1443,-1.1476,-1.1477,-1.1478,-1.1478,0,-1.1343,-1.134,-1.1354,-1.1368,-1.138,-1.139,-1.1399,-1.1409,-1.1402,-1.1415,-1.1433,-1.1444,-1.1465,-1.1482,-1.1497,-1.1501,-1.1489,-1.1487,-1.1494,-1.1496,-1.1498,-1.1498,-1.1409,-1.1485,-1.1484,-1.1484,-1.1483,-1.1483,-1.1389,-1.1405,-1.1412,-1.1429,-1.1435,-1.1445,-1.146,-1.1461,-1.1476,-1.1493,-1.1487,-1.1509,-1.1518,-1.1536,-1.1542,-1.156,-1.1548,-1.1558,-1.1561,-1.1563,-1.1566,-1.1496,-1.1562,-1.1562,-1.1562,-1.1562,-1.1562,0,-1.1451,-1.1455,-1.147,-1.1484,-1.1498,-1.1487,-1.1497,-1.1509,-1.1529,-1.1538,-1.1551,-1.1574,-1.1592,-1.1594,-1.1611,-1.1625,-1.162,-1.163,-1.1628,-1.163,-1.1575,-1.1568,-1.1634,-1.1634,-1.1634,-1.1634,-1.1634,-1.1634,-1.1484,-1.1511,-1.151,-1.1542,-1.1546,-1.1567,-1.1574,-1.1584,-1.1591,-1.1617,-1.1632,-1.1633,-1.164,-1.1658,-1.1674,-1.1675,-1.1682,-1.1694,-1.1692,-1.1641,-1.1633,-1.1627,-1.1619,-1.1695,-1.1695,-1.1745,-1.1746,-1.1746]},{"header":{"parameterUnit":"m.s-1","parameterCategory":1,"la1":30.2991,"la2":30.254,"lo1":-89.0895,"lo2":-89.0444,"dy":0.0017,"dx":0.0017,"nx":28,"ny":28,"refTime":"2023-10-19T03:00:00:Z","depth":0,"parameterNumber":3,"parameterNumberName":"V-component_of_WINDS"},"data":[0,0,0,0,0,0,0,0,0,0,0,0,0,0,0,0,0,0,0,0,0,0,0,0,0,0,0,0,0,0,0,0,0,0,0,0,0,0,0,0,0,0,0,0,0,0,0,0,0,0,0,0,0,0,0,0,0,0,3.0955,3.0955,0,3.0877,3.0876,3.0875,3.0893,3.0894,3.0896,3.0897,3.0809,3.0805,3.0801,0,0,0,0,0,0,0,0,0,0,0,0,0,3.1113,3.111,3.0955,3.0954,3.0954,3.0877,3.0876,3.0875,3.0892,3.0894,3.0896,3.0898,3.081,3.0806,3.0801,0,0,0,0,0,0,0,0,0,0,0,0,0,3.104,3.1109,3.0956,3.0953,3.0952,3.0877,3.0876,3.0875,3.0892,3.0894,3.0897,3.0899,3.0811,3.0806,3.08,3.0721,0,0,3.0783,3.0781,0,0,0,0,0,0,0,0,3.1044,3.1034,3.0955,3.0953,3.0952,3.0897,3.0899,3.0823,3.0892,3.0915,3.0897,3.09,3.0836,3.0828,3.0808,3.0717,3.0713,3.0783,3.0779,3.0777,3.0775,0,0,0,0,0,0,0,3.1049,3.1038,3.0924,3.0953,3.0952,3.0954,3.0946,3.0885,3.0863,3.0913,3.0914,3.0905,3.0836,3.0814,3.0806,3.0712,3.0783,3.0778,3.0774,3.0772,3.055,3.0547,0,0,0,0,0,0,3.1056,3.1042,3.0927,3.0922,3.1005,3.0949,3.094,3.0912,3.0864,3.0859,3.0903,3.0906,3.0822,3.0813,3.0803,3.0707,3.0777,3.0772,3.0769,3.0552,3.0549,3.0546,0,0,0,0,0,0,3.106,3.1046,3.093,3.0982,3.0968,3.0944,3.0912,3.091,3.0888,3.0857,3.0852,3.0885,3.0824,3.0811,3.0742,3.0704,3.0769,3.0764,3.0555,3.0551,3.0548,3.0512,0,0,0,0,0,0,3.1064,3.1047,3.1018,3.0982,3.0965,3.0871,3.091,3.0906,3.0879,3.0882,3.0839,3.0834,3.0825,3.075,3.0736,3.0697,3.076,3.0558,3.0553,3.0549,3.0517,3.0508,3.05,0,0,0,0,0,3.107,3.101,3.1017,3.1003,3.0929,3.0869,3.0859,3.0852,3.0876,3.0846,3.0826,3.0835,3.0711,3.0743,3.0727,3.0686,3.0561,3.0555,3.0549,3.052,3.0509,3.05,0,0,0,0,0,0,3.104,3.1005,3.1012,3.0939,3.0907,3.0872,3.0834,3.0841,3.08,3.0804,3.0794,3.0784,3.0713,3.0693,3.0729,3.0606,3.0639,3.0629,3.0622,3.0611,3.0603,3.0609,3.0755,0,0,0,0,0,3.1025,3.0982,3.0953,3.0891,3.0875,3.0857,3.0831,3.0829,3.0794,3.078,3.0755,3.0719,3.0672,3.0641,3.0595,3.0514,3.0504,3.0478,3.047,3.0463,3.0455,3.041,3.0397,3.0527,3.0527,3.0528,0,0,3.0993,3.0969,3.0942,3.0885,3.086,3.0813,3.0846,3.0795,3.076,3.0771,3.0705,3.0685,3.0644,3.0569,3.0534,3.0549,3.0417,3.0456,3.0451,3.0446,3.0402,3.039,3.0379,3.0524,3.0524,3.0525,0,0,3.0912,3.089,3.0836,3.0811,3.0774,3.0763,3.075,3.0714,3.0702,3.0636,3.0643,3.06,3.0519,3.049,3.0464,3.0372,3.0379,3.0357,3.0313,3.0269,3.0259,3.025,3.0216,3.0204,3.035,3.035,3.0349,0,3.0876,3.0809,3.0806,3.0756,3.0729,3.0741,3.0685,3.066,3.0609,3.0589,3.0608,3.0507,3.048,3.0397,3.0375,3.0354,3.0338,3.0362,3.0261,3.0252,3.0243,3.0211,3.0198,3.0347,3.0347,3.0348,3.0348,0,3.0766,3.072,3.068,3.0634,3.0603,3.055,3.0537,3.0506,3.0506,3.0492,3.0423,3.0392,3.0341,3.0321,3.032,3.0238,3.0248,3.0264,3.0297,3.0229,3.0198,3.0186,3.0344,3.0345,3.0345,3.0346,0,0,3.0662,3.0617,3.0602,3.0581,3.0542,3.0504,3.0451,3.0403,3.0376,3.034,3.0294,3.0226,3.0241,3.0212,3.0207,3.0169,3.0097,3.0189,3.0188,3.0172,3.0003,2.9991,2.9977,3.0102,3.0099,3.0097,3.0006,0,3.0576,3.0486,3.0482,3.0398,3.0354,3.0364,3.0317,3.0287,3.0272,3.0231,3.0214,3.0165,3.0189,3.0172,3.0134,3.0114,3.0062,3.012,3.0056,3.0054,3.0065,2.9961,2.9947,2.9863,2.9994,2.9992,2.9991,0,3.0464,3.0428,3.034,3.0308,3.0289,3.0247,3.0204,3.0165,3.0129,3.0121,3.009,3.0091,3.0034,3.007,2.999,3.0029,3.0002,2.9988,2.9985,2.9977,3.0017,2.9949,2.9836,2.9823,2.9972,2.9974,2.9975,0,3.0396,3.0325,3.0264,3.0246,3.0206,3.0176,3.0158,3.0125,3.0097,3.0058,3.0039,2.9993,2.9967,2.993,2.9917,2.9945,2.9837,2.9872,2.9827,2.9827,2.9803,2.9804,2.9682,2.9788,2.9788,2.9788,2.9788,0,3.03,3.0245,3.0233,3.0195,3.0134,3.0129,3.0068,3.0051,3.0022,2.9979,2.9984,2.9943,2.9931,2.9886,2.9876,2.9811,2.9799,2.9789,2.9787,2.9788,2.9789,2.977,2.9775,2.9785,2.9786,2.9786,2.9787,0,3.0213,3.0202,3.0136,3.0105,3.0096,3.0052,3.0024,2.9986,2.9973,2.9919,2.9905,2.9884,2.9833,2.9818,2.9755,2.9748,2.9671,2.9674,2.9684,2.9683,2.9639,2.9643,2.9499,2.9479,2.9598,2.9597,2.9596,0,3.0152,3.0111,3.0076,3.0049,3.003,2.9986,2.9959,2.9952,2.9922,2.9879,2.9846,2.9796,2.9756,2.9673,2.965,2.9602,2.9603,2.9556,2.9596,2.9598,2.9601,2.9603,2.9599,2.9548,2.9547,2.9546,2.9545,0,3.0044,3.0041,3.0002,2.9961,2.9928,2.9895,2.9863,2.984,2.9828,2.9794,2.9743,2.9712,2.965,2.9599,2.9551,2.9529,2.9534,2.9533,2.952,2.952,2.9527,2.9522,2.9662,2.9536,2.9537,2.9538,2.9538,2.9538,2.9967,2.9931,2.9902,2.9858,2.9833,2.9803,2.9767,2.975,2.9709,2.9659,2.9657,2.9602,2.9567,2.9503,2.9478,2.9433,2.9446,2.9428,2.9423,2.9418,2.9414,2.9536,2.9424,2.9424,2.9425,2.9425,2.9425,0,2.9859,2.9841,2.9801,2.9757,2.9722,2.9734,2.9699,2.9668,2.962,2.9588,2.955,2.949,2.9442,2.9416,2.9367,2.9335,2.9336,2.9323,2.9324,2.9319,2.9405,2.9421,2.9323,2.9323,2.9323,2.9323,2.9323,2.9323,2.9799,2.9738,2.9732,2.9659,2.9641,2.9589,2.9567,2.9539,2.9514,2.9449,2.941,2.9394,2.9364,2.9313,2.9268,2.9262,2.9243,2.9227,2.9221,2.9302,2.9313,2.9323,2.9338,2.9223,2.9223,2.9139,2.9138,2.9138]}]]